Location: ČR
(50.0000°N, 15.0000°E)
Time: 11:04:25
(UTC+02:00)

Vanguard 2 - All Passes

Search period start: 08 May 2026 00:00
Search period end: 18 May 2026 00:00
Orbit: 554 x 2894 km, 32.9° (Epoch: 7 May)

Date Brightness Start Highest point End Pass type
(mag) Time Alt. Az. Time Alt. Az. Time Alt. Az.
8 May - 03:06:05 10° S 03:14:46 17° SSE 03:22:22 10° ESE visible
8 May - 05:11:20 10° SW 05:23:40 29° SSE 05:32:49 10° ESE daylight
8 May - 07:21:03 10° WSW 07:32:17 31° S 07:39:58 10° SE daylight
8 May - 09:32:46 10° WSW 09:39:39 20° SSW 09:44:49 10° SSE daylight
9 May - 03:15:18 10° S 03:26:02 21° SSE 03:35:08 10° ESE visible
9 May - 05:22:04 10° SW 05:35:04 32° S 05:44:34 10° ESE daylight
9 May - 07:32:22 10° WSW 07:43:38 31° SSW 07:51:22 10° SE daylight
9 May - 09:44:41 10° WSW 09:50:50 17° SSW 09:55:35 10° S daylight
10 May - 03:25:08 10° SSW 03:37:18 25° SSE 03:47:25 10° ESE visible
10 May - 05:32:57 10° SW 05:46:26 34° S 05:56:13 10° ESE daylight
10 May - 07:43:45 10° WSW 07:54:57 30° SSW 08:02:41 10° SE daylight
10 May - 09:56:55 10° WSW 10:01:55 14° SW 10:05:59 10° S daylight
11 May - 01:33:08 10° SSE 01:39:45 13° SE 01:46:04 10° ESE visible
11 May - 03:35:20 10° SSW 03:48:34 28° SSE 03:59:26 10° ESE visible
11 May - 05:44:00 10° SW 05:57:49 36° S 06:07:45 10° ESE daylight
11 May - 07:55:14 10° WSW 08:06:13 29° SSW 08:13:55 10° SE daylight
11 May - 10:09:50 10° WSW 10:12:56 12° SW 10:15:40 10° SSW daylight
12 May - 01:41:20 10° S 01:50:50 17° SE 01:59:44 10° ESE visible
12 May - 03:45:50 10° SW 03:59:51 32° SSE 04:11:16 10° ESE visible
12 May - 05:55:09 10° WSW 06:09:10 37° S 06:19:14 10° ESE daylight
12 May - 08:06:48 10° WSW 08:17:25 27° SSW 08:24:59 10° SSE daylight
13 May - 01:50:36 10° S 02:01:55 21° SSE 02:12:28 10° ESE visible
13 May - 03:56:33 10° SW 04:11:09 35° SSE 04:22:59 10° ESE visible
13 May - 06:06:25 10° WSW 06:20:30 37° S 06:30:38 10° SE daylight
13 May - 08:18:30 10° WSW 08:28:33 24° SSW 08:35:55 10° SSE daylight
14 May - 02:00:27 10° SSW 02:13:02 25° SSE 02:24:44 10° ESE visible
14 May - 04:07:26 10° SW 04:22:27 37° S 04:34:35 10° ESE visible
14 May - 06:17:45 10° WSW 06:31:46 36° SSW 06:41:58 10° SE daylight
14 May - 08:30:22 10° WSW 08:39:38 21° SW 08:46:37 10° S daylight
15 May - 00:10:06 10° SSE 00:15:41 12° SE 00:21:20 10° ESE visible
15 May - 02:10:40 10° SSW 02:24:10 29° SSE 02:36:44 10° ESE visible
15 May - 04:18:27 10° SW 04:33:45 39° S 04:46:07 10° ESE visible
15 May - 06:29:11 10° WSW 06:43:02 35° SSW 06:53:10 10° SE daylight
15 May - 08:42:28 10° WSW 08:50:36 18° SW 08:57:01 10° S daylight
16 May - 00:17:57 10° S 00:26:36 16° SE 00:35:26 10° ESE visible
16 May - 02:21:10 10° SSW 02:35:20 33° SSE 02:48:33 10° ESE visible
16 May - 04:29:36 10° WSW 04:45:04 40° S 04:57:34 10° ESE visible
16 May - 06:40:41 10° WSW 06:54:12 33° SSW 07:04:16 10° SE daylight
16 May - 08:55:00 10° WSW 09:01:31 15° SW 09:06:57 10° SSW daylight
17 May - 00:27:08 10° S 00:37:32 20° SE 00:48:18 10° ESE visible
17 May - 02:31:52 10° SW 02:46:32 36° SSE 03:00:14 10° ESE visible
17 May - 04:40:50 10° WSW 04:56:21 41° S 05:08:57 10° ESE daylight
17 May - 06:52:16 10° WSW 07:05:20 30° SSW 07:15:14 10° SSE daylight
17 May - 09:08:30 10° WSW 09:12:21 12° SW 09:15:51 10° SSW daylight
